Date String (YYYY-MM-DD hh:mm:ss) UTC,Instrument flags,Ambient pressure (hPa),Sample flow (lpm),Bypass flow (lpm),Sample temperature (°C),Ambient temperature (°C),ASC tube jacket temperature (°C),LED temperature (°C),Box temperature (°C),Sample RH (%),Span deviation,Mass concentration (μg/m³),Mass concentration (μg/m³),Mass concentration (μg/m³)
DateTimeUTC,F1_M11,P_M11,Q1_M11,Q2_M11,T1_M11,T2_M11,T3_M11,T4_M11,T5_M11,U1_M11,ZSPAN_M11,X0_M11,X2_M11,X1_M11
2023-01-31 07:00:00,,0826.8,5.02,0.00,22.7,22.7,00.0,31.4,24.6,04.8,0001.4,0017.05,0012.33,0011.30
2023-01-31 07:01:00,,0826.8,5.01,0.00,22.6,22.1,00.0,31.4,24.4,04.8,0001.4,0017.27,0012.38,0011.29
2023-01-31 07:02:00,,0826.8,5.00,0.00,22.6,21.7,00.0,31.4,24.3,04.8,0001.5,0017.13,0012.31,0011.27
2023-01-31 07:03:00,,0826.8,4.99,0.00,22.6,21.3,00.0,31.4,24.2,04.8,0001.3,0016.93,0012.22,0011.23
2023-01-31 07:04:00,,0826.8,4.99,0.00,22.5,21.0,00.0,31.4,24.1,04.9,0001.4,0017.44,0012.18,0011.21
2023-01-31 07:05:00,,0826.8,4.99,0.00,22.5,20.8,00.0,31.4,24.0,04.9,0001.4,0017.53,0012.16,0011.18
2023-01-31 07:06:00,,0826.8,5.02,0.00,22.4,20.7,00.0,31.4,24.0,04.9,0001.1,0017.60,0012.17,0011.16
2023-01-31 07:07:00,,0826.8,5.00,0.00,22.4,21.5,00.0,31.3,24.2,04.9,0001.0,0017.60,0012.14,0011.13
2023-01-31 07:08:00,,0826.8,5.00,0.00,22.6,22.5,00.0,31.3,24.4,04.9,0000.2,0017.25,0012.12,0011.12
2023-01-31 07:09:00,,0826.8,5.00,0.00,22.7,23.0,00.0,31.4,24.6,04.9,-000.0,0017.24,0012.12,0011.10
2023-01-31 07:10:00,,0826.8,5.01,0.00,22.7,22.5,00.0,31.4,24.6,04.9,-000.1,0018.07,0012.09,0011.08
2023-01-31 07:11:00,,0826.7,5.00,0.00,22.7,22.0,00.0,31.4,24.4,04.9,-000.1,0018.06,0012.07,0011.07
2023-01-31 07:12:00,,0826.7,5.01,0.00,22.6,21.6,00.0,31.4,24.3,04.9,0000.0,0017.83,0012.01,0011.05
2023-01-31 07:13:00,,0826.7,5.00,0.00,22.6,21.3,00.0,31.4,24.2,05.0,-000.0,0017.79,0012.04,0011.07
2023-01-31 07:14:00,,0826.7,5.01,0.00,22.5,21.0,00.0,31.4,24.1,05.0,-000.2,0017.97,0012.12,0011.10
2023-01-31 07:15:00,,0826.7,4.99,0.00,22.5,20.8,00.0,31.4,24.1,05.0,-000.3,0017.78,0012.12,0011.11
2023-01-31 07:16:00,,0826.8,4.99,0.00,22.4,20.7,00.0,31.4,24.0,05.0,-000.2,0017.77,0012.09,0011.10
2023-01-31 07:17:00,,0826.7,5.01,0.00,22.4,21.4,00.0,31.4,24.2,05.0,-000.1,0017.80,0012.11,0011.11
2023-01-31 07:18:00,,0826.7,4.99,0.00,22.6,22.4,00.0,31.3,24.4,05.0,0000.0,0017.84,0012.11,0011.11
2023-01-31 07:19:00,,0826.7,5.01,0.00,22.7,23.1,00.0,31.4,24.7,05.0,0000.6,0017.83,0012.10,0011.10
2023-01-31 07:20:00,,0826.7,4.99,0.00,22.7,22.7,00.0,31.4,24.6,05.0,0001.1,0017.74,0012.07,0011.08
2023-01-31 07:21:00,,0826.7,5.01,0.00,22.7,22.1,00.0,31.4,24.5,04.9,0001.0,0017.82,0012.17,0011.16
2023-01-31 07:22:00,,0826.7,5.01,0.00,22.6,21.7,00.0,31.5,24.3,05.0,0001.1,0018.42,0012.28,0011.23
2023-01-31 07:23:00,,0826.7,4.99,0.00,22.6,21.3,00.0,31.5,24.2,05.0,0000.9,0018.52,0012.34,0011.32
2023-01-31 07:24:00,,0826.7,5.00,0.00,22.5,21.0,00.0,31.4,24.1,05.0,0000.4,0018.41,0012.33,0011.36
2023-01-31 07:25:00,,0826.7,4.99,0.00,22.5,20.8,00.0,31.4,24.0,05.0,0000.6,0019.04,0012.27,0011.37
2023-01-31 07:26:00,,0826.7,5.01,0.00,22.4,20.7,00.0,31.4,24.0,05.0,0001.0,0019.48,0012.30,0011.40
2023-01-31 07:27:00,,0826.7,5.00,0.00,22.4,21.2,00.0,31.4,24.1,05.0,0000.9,0019.46,0012.34,0011.42
2023-01-31 07:28:00,,0826.7,5.01,0.00,22.5,22.3,00.0,31.4,24.4,05.0,0001.1,0019.56,0012.35,0011.43
2023-01-31 07:29:00,,0826.7,4.98,0.00,22.7,23.0,00.0,31.4,24.6,05.0,0001.1,0019.56,0012.35,0011.45
2023-01-31 07:30:00,,0826.7,4.99,0.00,22.7,22.6,00.0,31.4,24.6,05.0,0000.7,0019.55,0012.37,0011.47
2023-01-31 07:31:00,,0826.7,5.01,0.00,22.7,22.1,00.0,31.4,24.5,05.0,0000.5,0019.69,0012.40,0011.51
2023-01-31 07:32:00,,0826.7,5.00,0.00,22.6,21.7,00.0,31.5,24.3,05.0,0000.6,0020.11,0012.34,0011.46
2023-01-31 07:33:00,,0826.7,5.01,0.00,22.6,21.3,00.0,31.5,24.2,05.0,0000.3,0019.30,0012.30,0011.41
2023-01-31 07:34:00,,0826.7,4.99,0.00,22.5,21.1,00.0,31.4,24.1,05.0,0000.4,0019.21,0012.26,0011.36
2023-01-31 07:35:00,,0826.7,4.98,0.00,22.5,20.9,00.0,31.4,24.1,05.0,0000.8,0019.19,0012.23,0011.31
2023-01-31 07:36:00,,0826.7,5.00,0.00,22.4,20.7,00.0,31.4,24.0,05.0,0001.2,0018.80,0012.30,0011.30
2023-01-31 07:37:00,,0826.7,5.00,0.00,22.4,21.2,00.0,31.4,24.1,05.0,0000.9,0018.36,0012.30,0011.27
2023-01-31 07:38:00,,0826.7,4.99,0.00,22.5,22.2,00.0,31.4,24.4,05.0,0000.9,0018.27,0012.31,0011.28
2023-01-31 07:39:00,,0826.6,4.99,0.00,22.6,22.9,00.0,31.4,24.6,05.0,0000.7,0018.14,0012.30,0011.29
2023-01-31 07:40:00,,0826.6,5.00,0.00,22.7,22.7,00.0,31.4,24.6,04.9,0000.5,0018.65,0012.33,0011.33
2023-01-31 07:41:00,,0826.7,5.01,0.00,22.7,22.2,00.0,31.4,24.5,04.9,0000.6,0018.88,0012.38,0011.37
2023-01-31 07:42:00,,0826.7,5.00,0.00,22.7,21.7,00.0,31.5,24.4,04.9,0000.8,0019.00,0012.43,0011.39
2023-01-31 07:43:00,,0826.6,5.00,0.00,22.6,21.4,00.0,31.5,24.2,04.9,0000.6,0018.43,0012.50,0011.44
2023-01-31 07:44:00,,0826.7,5.00,0.00,22.6,21.1,00.0,31.4,24.1,04.9,0000.9,0018.51,0012.55,0011.51
2023-01-31 07:45:00,,0826.5,5.02,0.00,22.5,20.9,00.0,31.4,24.1,04.9,0001.1,0019.16,0012.65,0011.58
2023-01-31 07:46:00,,0826.5,5.01,0.00,22.5,20.7,00.0,31.4,24.0,04.9,0001.4,0019.44,0012.73,0011.68
2023-01-31 07:47:00,,0826.5,5.00,0.00,22.4,20.6,00.0,31.4,24.0,04.9,0001.2,0019.98,0012.78,0011.79
2023-01-31 07:48:00,,0826.5,5.00,0.00,22.4,21.4,00.0,31.4,24.2,04.9,0001.5,0019.80,0012.86,0011.91
2023-01-31 07:49:00,,0826.6,5.02,0.00,22.6,22.4,00.0,31.3,24.5,04.8,0001.5,0019.71,0012.96,0012.01
2023-01-31 07:50:00,,0826.5,5.01,0.00,22.7,23.2,00.0,31.4,24.7,04.8,0001.9,0019.95,0013.10,0012.11
2023-01-31 07:51:00,,0826.5,4.97,0.00,22.8,23.1,00.0,31.4,24.7,04.7,0001.9,0020.03,0013.19,0012.15
2023-01-31 07:52:00,,0826.5,5.00,0.00,22.7,22.5,00.0,31.5,24.6,04.7,0002.0,0019.93,0013.21,0012.15
2023-01-31 07:53:00,,0826.5,5.02,0.00,22.7,22.0,00.0,31.5,24.5,04.8,0001.8,0019.75,0013.18,0012.14
2023-01-31 07:54:00,,0826.5,5.01,0.00,22.7,21.5,00.0,31.5,24.3,04.8,0001.8,0019.56,0013.14,0012.11
2023-01-31 07:55:00,,0826.5,5.01,0.00,22.6,21.2,00.0,31.5,24.2,04.8,0001.8,0019.17,0013.08,0012.06
2023-01-31 07:56:00,,0826.5,5.00,0.00,22.5,20.9,00.0,31.5,24.2,04.8,0001.6,0018.97,0013.00,0011.98
2023-01-31 07:57:00,,0826.5,5.00,0.00,22.5,20.7,00.0,31.5,24.0,04.8,0001.2,0018.47,0012.89,0011.88
2023-01-31 07:58:00,,0826.5,5.00,0.00,22.4,20.5,00.0,31.4,24.0,04.8,0001.0,0018.15,0012.80,0011.78
2023-01-31 07:59:00,,0826.5,5.00,0.00,22.4,21.1,00.0,31.4,24.1,04.8,0000.9,0018.61,0012.70,0011.67
